Aérodrome :
LOGIN :

S'inscrire | Disclaimer

   EN    FR    IT 

 










Légende :    VFR   VFR Marginal   IFR   IFR Intensif   IFR Très Intensif
Visi : 
Plafond : 
>= 8 km
>= 3000ft
5 à 8 km
1000 à 3000 ft
1500m à 5 km
500 à 1000 ft
800 à 1500m
200 à 500 ft
< 800m
< 200 ft
Symboles :   Orages  Brouillard  Fortes neiges  Fortes précipitations  Vent > 20 kt
SIGMETs :   Divers  Orages  Givrage  Turbulence  Onde Orograph.  Cendres Volcan.







- Altitude de l'aérodrome : 56 ft
- Code IATA : BZR
- Voir les cartes d'approche


LFMU - Beziers / Vias

DERNIER METAR :
  • 211700Z AUTO 31014KT CAVOK 27/11 Q1012 NOSIG

METARs EXPIRÉS :
  • 211630Z AUTO 30014KT 270V330 CAVOK 27/10 Q1012 NOSIG
  • 211600Z AUTO 32013KT CAVOK 28/11 Q1012 NOSIG
  • 211530Z AUTO 34015KT 300V360 CAVOK 28/10 Q1013 NOSIG
  • 211500Z AUTO 34013KT 300V010 CAVOK 27/10 Q1012 NOSIG
  • 211430Z AUTO 34012G24KT 310V010 CAVOK 28/10 Q1012 NOSIG

TAF TAF LFMU
Valide du 21 à 15h jusqu'au 22 à 15h UTC


211400Z 2115/2215 32012KT CAVOK
BECMG 2211/2213 20012KT
PROB30
TEMPO 2213/2215 SHRA SCT060TCU
ATIS : +33 4 67 90 88 88
Pas de NOTAMs connus pour ce terrain.



MET'MAP, la Météo Aéronautique d'un coup d'oeil ! - Copyright ORBIFLY Décembre 2007 - Disclaimer

ORBIFLY MET'MAP TEAM :

Programmation & Développement : Alexandra Zaïnal
Conception & Développement : Baudouin d'Aumeries
Co-Programmation & Développement : Marc-Olivier Méhu
Soutien technique & logistique : Manuel Goepfert

Contact : metmap@orbifly.com




SOURCES & CREDITS :

   NOAA